date,time,SUV Intensity [MED/Hr],UV Index,Daily total [MED],Since Last [MED]
30/05/2023,00:02:22,0.000,0.0,0.0,0.0
30/05/2023,00:03:22,0.000,0.0,0.0,0.0
30/05/2023,00:04:22,-0.001,0.0,0.0,0.0
30/05/2023,00:05:22,0.000,0.0,0.0,0.0
30/05/2023,00:06:22,0.000,0.0,0.0,0.0
30/05/2023,00:07:22,-0.000,0.0,0.0,0.0
30/05/2023,00:08:22,0.000,0.0,0.0,0.0
30/05/2023,00:09:22,-0.000,0.0,0.0,0.0
30/05/2023,00:10:22,0.000,0.0,0.0,0.0
30/05/2023,00:11:22,0.000,0.0,0.0,0.0
30/05/2023,00:12:22,0.000,0.0,0.0,0.0
30/05/2023,00:13:22,0.000,0.0,0.0,0.0
30/05/2023,00:14:22,0.000,0.0,0.0,0.0
30/05/2023,00:15:22,-0.000,0.0,0.0,0.0
30/05/2023,00:16:22,0.000,0.0,0.0,0.0
30/05/2023,00:17:22,0.001,0.0,0.0,0.0
30/05/2023,00:18:21,0.000,0.0,0.0,0.0
30/05/2023,00:19:22,0.001,0.0,0.0,0.0
30/05/2023,00:20:21,0.000,0.0,0.0,0.0
30/05/2023,00:21:21,0.000,0.0,0.0,0.0
30/05/2023,00:22:22,-0.000,0.0,0.0,0.0
30/05/2023,00:23:22,0.001,0.0,0.0,0.0
30/05/2023,00:24:22,0.001,0.0,0.0,0.0
30/05/2023,00:25:22,0.000,0.0,0.0,0.0
30/05/2023,00:26:22,0.000,0.0,0.0,0.0
30/05/2023,00:27:22,0.000,0.0,0.0,0.0
30/05/2023,00:28:21,-0.000,0.0,0.0,0.0
30/05/2023,00:29:22,-0.000,0.0,0.0,0.0
30/05/2023,00:30:22,-0.001,0.0,0.0,0.0
30/05/2023,00:31:21,0.000,0.0,0.0,0.0
30/05/2023,00:32:22,0.000,0.0,0.0,0.0
30/05/2023,00:33:22,0.001,0.0,0.0,0.0
30/05/2023,00:34:22,0.000,0.0,0.0,0.0
30/05/2023,00:35:22,0.000,0.0,0.0,0.0
30/05/2023,00:36:21,0.000,0.0,0.0,0.0
30/05/2023,00:37:22,0.000,0.0,0.0,0.0
30/05/2023,00:38:22,0.000,0.0,0.0,0.0
30/05/2023,00:39:22,0.000,0.0,0.0,0.0
30/05/2023,00:40:22,0.000,0.0,0.0,0.0
30/05/2023,00:41:22,0.000,0.0,0.0,0.0
30/05/2023,00:42:22,0.000,0.0,0.0,0.0
30/05/2023,00:43:21,0.001,0.0,0.0,0.0
30/05/2023,00:44:21,0.000,0.0,0.0,0.0
30/05/2023,00:45:22,0.000,0.0,0.0,0.0
30/05/2023,00:46:22,-0.000,0.0,0.0,0.0
30/05/2023,00:47:21,0.001,0.0,0.0,0.0
30/05/2023,00:48:22,0.000,0.0,0.0,0.0
30/05/2023,00:49:22,0.000,0.0,0.0,0.0
30/05/2023,00:50:21,0.000,0.0,0.0,0.0
30/05/2023,00:51:22,-0.001,0.0,0.0,0.0
30/05/2023,00:52:22,0.000,0.0,0.0,0.0
30/05/2023,00:53:22,0.001,0.0,0.0,0.0
30/05/2023,00:54:21,0.000,0.0,0.0,0.0
30/05/2023,00:55:22,0.000,0.0,0.0,0.0
30/05/2023,00:56:21,0.000,0.0,0.0,0.0
30/05/2023,00:57:21,0.001,0.0,0.0,0.0
30/05/2023,00:58:21,0.001,0.0,0.0,0.0
30/05/2023,00:59:22,0.001,0.0,0.0,0.0
30/05/2023,01:00:22,0.001,0.0,0.0,0.0
30/05/2023,01:01:22,-0.000,0.0,0.0,0.0
30/05/2023,01:02:22,0.000,0.0,0.0,0.0
30/05/2023,01:03:22,0.001,0.0,0.0,0.0
30/05/2023,01:04:21,0.000,0.0,0.0,0.0
30/05/2023,01:05:22,-0.000,0.0,0.0,0.0
30/05/2023,01:06:22,0.001,0.0,0.0,0.0
30/05/2023,01:07:22,0.000,0.0,0.0,0.0
30/05/2023,01:08:22,0.000,0.0,0.0,0.0
30/05/2023,01:09:21,0.000,0.0,0.0,0.0
30/05/2023,01:10:22,0.000,0.0,0.0,0.0
30/05/2023,01:11:22,0.000,0.0,0.0,0.0
30/05/2023,01:12:22,0.000,0.0,0.0,0.0
30/05/2023,01:13:22,0.000,0.0,0.0,0.0
30/05/2023,01:14:22,0.001,0.0,0.0,0.0
30/05/2023,01:15:22,0.000,0.0,0.0,0.0
30/05/2023,01:16:22,0.000,0.0,0.0,0.0
30/05/2023,01:17:21,0.001,0.0,0.0,0.0
30/05/2023,01:18:21,0.000,0.0,0.0,0.0
30/05/2023,01:19:22,0.001,0.0,0.0,0.0
30/05/2023,01:20:22,0.001,0.0,0.0,0.0
30/05/2023,01:21:22,0.001,0.0,0.0,0.0
30/05/2023,01:22:22,0.001,0.0,0.0,0.0
30/05/2023,01:23:22,0.001,0.0,0.0,0.0
30/05/2023,01:24:22,0.000,0.0,0.0,0.0
30/05/2023,01:25:22,-0.000,0.0,0.0,0.0
30/05/2023,01:26:21,-0.000,0.0,0.0,0.0
30/05/2023,01:27:21,0.001,0.0,0.0,0.0
30/05/2023,01:28:22,0.001,0.0,0.0,0.0
30/05/2023,01:29:22,0.001,0.0,0.0,0.0
30/05/2023,01:30:22,0.001,0.0,0.0,0.0
30/05/2023,01:31:22,0.001,0.0,0.0,0.0
30/05/2023,01:32:22,0.000,0.0,0.0,0.0
30/05/2023,01:33:22,0.001,0.0,0.0,0.0
30/05/2023,01:34:21,0.001,0.0,0.0,0.0
30/05/2023,01:35:22,-0.000,0.0,0.0,0.0
30/05/2023,01:36:22,0.001,0.0,0.0,0.0
30/05/2023,01:37:22,0.001,0.0,0.0,0.0
30/05/2023,01:38:22,0.001,0.0,0.0,0.0
30/05/2023,01:39:22,0.001,0.0,0.0,0.0
30/05/2023,01:40:22,0.000,0.0,0.0,0.0
30/05/2023,01:41:21,0.001,0.0,0.0,0.0
30/05/2023,01:42:22,0.001,0.0,0.0,0.0
30/05/2023,01:43:22,0.001,0.0,0.0,0.0
30/05/2023,01:44:22,0.001,0.0,0.0,0.0
30/05/2023,01:45:22,0.001,0.0,0.0,0.0
30/05/2023,01:46:22,0.001,0.0,0.0,0.0
30/05/2023,01:47:22,0.001,0.0,0.0,0.0
30/05/2023,01:48:22,0.001,0.0,0.0,0.0
30/05/2023,01:49:22,0.000,0.0,0.0,0.0
30/05/2023,01:50:21,0.001,0.0,0.0,0.0
30/05/2023,01:51:22,0.001,0.0,0.0,0.0
30/05/2023,01:52:22,0.001,0.0,0.0,0.0
30/05/2023,01:53:22,0.001,0.0,0.0,0.0
30/05/2023,01:54:22,0.001,0.0,0.0,0.0
30/05/2023,01:55:22,0.001,0.0,0.0,0.0
30/05/2023,01:56:22,-0.000,0.0,0.0,0.0
30/05/2023,01:57:22,-0.000,0.0,0.0,0.0
30/05/2023,01:58:22,0.001,0.0,0.0,0.0
30/05/2023,01:59:23,0.001,0.0,0.0,0.0
30/05/2023,02:00:21,0.001,0.0,0.0,0.0
30/05/2023,02:01:22,0.001,0.0,0.0,0.0
30/05/2023,02:02:22,0.001,0.0,0.0,0.0
30/05/2023,02:03:22,0.001,0.0,0.0,0.0
30/05/2023,02:04:22,0.001,0.0,0.0,0.0
30/05/2023,02:05:22,0.001,0.0,0.0,0.0
30/05/2023,02:06:22,0.001,0.0,0.0,0.0
30/05/2023,02:07:22,0.001,0.0,0.0,0.0
30/05/2023,02:08:22,0.001,0.0,0.0,0.0
30/05/2023,02:09:21,0.001,0.0,0.0,0.0
30/05/2023,02:10:23,0.001,0.0,0.0,0.0
30/05/2023,02:11:22,0.001,0.0,0.0,0.0
30/05/2023,02:12:22,0.001,0.0,0.0,0.0
30/05/2023,02:13:22,0.001,0.0,0.0,0.0
30/05/2023,02:14:22,0.001,0.0,0.0,0.0
30/05/2023,02:15:21,0.001,0.0,0.0,0.0
30/05/2023,02:16:22,0.001,0.0,0.0,0.0
30/05/2023,02:17:22,0.001,0.0,0.0,0.0
30/05/2023,02:18:22,0.001,0.0,0.0,0.0
30/05/2023,02:19:22,0.001,0.0,0.0,0.0
30/05/2023,02:20:22,0.001,0.0,0.0,0.0
30/05/2023,02:21:22,-0.000,0.0,0.0,0.0
30/05/2023,02:22:22,0.001,0.0,0.0,0.0
30/05/2023,02:23:22,0.001,0.0,0.0,0.0
30/05/2023,02:24:22,0.001,0.0,0.0,0.0
30/05/2023,02:25:22,0.001,0.0,0.0,0.0
30/05/2023,02:26:22,0.001,0.0,0.0,0.0
30/05/2023,02:27:22,0.001,0.0,0.0,0.0
30/05/2023,02:28:22,0.001,0.0,0.0,0.0
30/05/2023,02:29:23,0.001,0.0,0.0,0.0
30/05/2023,02:30:23,0.001,0.0,0.0,0.0
30/05/2023,02:31:22,0.001,0.0,0.0,0.0
30/05/2023,02:32:22,0.001,0.0,0.0,0.0
30/05/2023,02:33:22,-0.000,0.0,0.0,0.0
30/05/2023,02:34:22,0.001,0.0,0.0,0.0
30/05/2023,02:35:22,0.001,0.0,0.0,0.0
30/05/2023,02:36:22,0.001,0.0,0.0,0.0
30/05/2023,02:37:22,0.001,0.0,0.0,0.0
30/05/2023,02:38:22,0.001,0.0,0.0,0.0
30/05/2023,02:39:22,0.001,0.0,0.0,0.0
30/05/2023,02:40:22,0.001,0.0,0.0,0.0
30/05/2023,02:41:22,0.001,0.0,0.0,0.0
30/05/2023,02:42:22,-0.000,0.0,0.0,0.0
30/05/2023,02:43:22,0.001,0.0,0.0,0.0
30/05/2023,02:44:22,-0.000,0.0,0.0,0.0
30/05/2023,02:45:21,0.001,0.0,0.0,0.0
30/05/2023,02:46:22,0.001,0.0,0.0,0.0
30/05/2023,02:47:21,0.001,0.0,0.0,0.0
30/05/2023,02:48:22,0.001,0.0,0.0,0.0
30/05/2023,02:49:22,0.001,0.0,0.0,0.0
30/05/2023,02:50:22,0.001,0.0,0.0,0.0
30/05/2023,02:51:21,0.001,0.0,0.0,0.0
30/05/2023,02:52:22,0.001,0.0,0.0,0.0
30/05/2023,02:53:23,0.001,0.0,0.0,0.0
30/05/2023,02:54:22,-0.000,0.0,0.0,0.0
30/05/2023,02:55:22,0.001,0.0,0.0,0.0
30/05/2023,02:56:22,0.001,0.0,0.0,0.0
30/05/2023,02:57:22,0.001,0.0,0.0,0.0
30/05/2023,02:58:22,0.001,0.0,0.0,0.0
30/05/2023,02:59:22,0.000,0.0,0.0,0.0
30/05/2023,03:00:22,0.001,0.0,0.0,0.0
30/05/2023,03:01:21,0.001,0.0,0.0,0.0
30/05/2023,03:02:21,0.001,0.0,0.0,0.0
30/05/2023,03:03:22,0.001,0.0,0.0,0.0
30/05/2023,03:04:22,0.001,0.0,0.0,0.0
30/05/2023,03:05:22,0.001,0.0,0.0,0.0
30/05/2023,03:06:22,0.001,0.0,0.0,0.0
30/05/2023,03:07:22,0.001,0.0,0.0,0.0
30/05/2023,03:08:22,0.001,0.0,0.0,0.0
30/05/2023,03:09:22,0.001,0.0,0.0,0.0
30/05/2023,03:10:22,0.001,0.0,0.0,0.0
30/05/2023,03:11:24,0.001,0.0,0.0,0.0
30/05/2023,03:12:22,0.001,0.0,0.0,0.0
30/05/2023,03:13:22,0.001,0.0,0.0,0.0
30/05/2023,03:14:22,0.001,0.0,0.0,0.0
30/05/2023,03:15:22,0.001,0.0,0.0,0.0
30/05/2023,03:16:22,0.001,0.0,0.0,0.0
30/05/2023,03:17:21,-0.000,0.0,0.0,0.0
30/05/2023,03:18:22,0.001,0.0,0.0,0.0
30/05/2023,03:19:22,0.001,0.0,0.0,0.0
30/05/2023,03:20:22,0.001,0.0,0.0,0.0
30/05/2023,03:21:22,0.001,0.0,0.0,0.0
30/05/2023,03:22:22,0.001,0.0,0.0,0.0
30/05/2023,03:23:22,0.001,0.0,0.0,0.0
30/05/2023,03:24:22,0.001,0.0,0.0,0.0
30/05/2023,03:25:22,0.001,0.0,0.0,0.0
30/05/2023,03:26:22,0.001,0.0,0.0,0.0
30/05/2023,03:27:22,0.001,0.0,0.0,0.0
30/05/2023,03:28:22,0.001,0.0,0.0,0.0
30/05/2023,03:29:22,0.001,0.0,0.0,0.0
30/05/2023,03:30:22,0.001,0.0,0.0,0.0
30/05/2023,03:31:22,0.001,0.0,0.0,0.0
30/05/2023,03:32:22,0.001,0.0,0.0,0.0
30/05/2023,03:33:22,0.001,0.0,0.0,0.0
30/05/2023,03:34:22,0.001,0.0,0.0,0.0
30/05/2023,03:35:22,0.000,0.0,0.0,0.0
30/05/2023,03:36:22,0.001,0.0,0.0,0.0
30/05/2023,03:37:23,0.001,0.0,0.0,0.0
30/05/2023,03:38:22,0.001,0.0,0.0,0.0
30/05/2023,03:39:22,0.001,0.0,0.0,0.0
30/05/2023,03:40:22,0.001,0.0,0.0,0.0
30/05/2023,03:41:22,0.002,0.0,0.0,0.0
30/05/2023,03:42:22,0.002,0.0,0.0,0.0
30/05/2023,03:43:22,0.001,0.0,0.0,0.0
30/05/2023,03:44:22,0.001,0.0,0.0,0.0
30/05/2023,03:45:22,0.001,0.0,0.0,0.0
30/05/2023,03:46:22,0.001,0.0,0.0,0.0
30/05/2023,03:47:22,0.002,0.0,0.0,0.0
30/05/2023,03:48:22,0.002,0.0,0.0,0.0
30/05/2023,03:49:22,0.001,0.0,0.0,0.0
30/05/2023,03:50:22,0.001,0.0,0.0,0.0
30/05/2023,03:51:22,0.002,0.0,0.0,0.0
30/05/2023,03:52:23,0.002,0.0,0.0,0.0
30/05/2023,03:53:22,0.002,0.0,0.0,0.0
30/05/2023,03:54:22,0.002,0.0,0.0,0.0
30/05/2023,03:55:22,0.002,0.0,0.0,0.0
30/05/2023,03:56:22,0.002,0.0,0.0,0.0
30/05/2023,03:57:22,0.001,0.0,0.0,0.0
30/05/2023,03:58:22,0.003,0.0,0.0,0.0
30/05/2023,03:59:23,0.002,0.0,0.0,0.0
30/05/2023,04:00:22,0.002,0.0,0.0,0.0
30/05/2023,04:01:22,0.003,0.0,0.0,0.0
30/05/2023,04:02:22,0.002,0.0,0.0,0.0
30/05/2023,04:03:22,0.002,0.0,0.0,0.0
30/05/2023,04:04:22,0.003,0.0,0.0,0.0
30/05/2023,04:05:22,0.003,0.0,0.0,0.0
30/05/2023,04:06:23,0.003,0.0,0.0,0.0
30/05/2023,04:07:22,0.003,0.0,0.0,0.0
30/05/2023,04:08:22,0.003,0.0,0.0,0.0
30/05/2023,04:09:22,0.004,0.0,0.0,0.0
30/05/2023,04:10:22,0.004,0.0,0.0,0.0
30/05/2023,04:11:22,0.004,0.0,0.0,0.0
30/05/2023,04:12:22,0.005,0.0,0.0,0.0
30/05/2023,04:13:23,0.004,0.0,0.0,0.0
30/05/2023,04:14:22,0.004,0.0,0.0,0.0
30/05/2023,04:15:22,0.004,0.0,0.0,0.0
30/05/2023,04:16:22,0.004,0.0,0.0,0.0
30/05/2023,04:17:22,0.005,0.0,0.0,0.0
30/05/2023,04:18:21,0.005,0.0,0.0,0.0
30/05/2023,04:19:22,0.005,0.0,0.0,0.0
30/05/2023,04:20:22,0.005,0.0,0.0,0.0
30/05/2023,04:21:23,0.006,0.0,0.0,0.0
30/05/2023,04:22:22,0.006,0.0,0.0,0.0
30/05/2023,04:23:22,0.006,0.0,0.0,0.0
30/05/2023,04:24:22,0.008,0.0,0.0,0.0
30/05/2023,04:25:22,0.007,0.0,0.0,0.0
30/05/2023,04:26:23,0.008,0.0,0.001,0.001
30/05/2023,04:27:22,0.009,0.0,0.001,0.0
30/05/2023,04:28:22,0.008,0.0,0.001,0.0
30/05/2023,04:29:22,0.008,0.0,0.001,0.0
30/05/2023,04:30:22,0.008,0.0,0.001,0.0
30/05/2023,04:31:22,0.009,0.0,0.001,0.0
30/05/2023,04:32:22,0.009,0.0,0.001,0.0
30/05/2023,04:33:22,0.010,0.0,0.001,0.0
30/05/2023,04:34:22,0.009,0.0,0.002,0.001
30/05/2023,04:35:22,0.010,0.0,0.002,0.0
30/05/2023,04:36:22,0.011,0.0,0.002,0.0
30/05/2023,04:37:22,0.010,0.0,0.002,0.0
30/05/2023,04:38:22,0.010,0.0,0.002,0.0
30/05/2023,04:39:22,0.012,0.0,0.003,0.001
30/05/2023,04:40:22,0.013,0.0,0.003,0.0
30/05/2023,04:41:23,0.013,0.0,0.003,0.0
30/05/2023,04:42:22,0.014,0.0,0.003,0.0
30/05/2023,04:43:22,0.014,0.0,0.003,0.0
30/05/2023,04:44:23,0.015,0.0,0.004,0.001
30/05/2023,04:45:23,0.014,0.0,0.004,0.0
30/05/2023,04:46:22,0.016,0.0,0.004,0.0
30/05/2023,04:47:22,0.015,0.0,0.004,0.0
30/05/2023,04:48:22,0.016,0.0,0.005,0.001
30/05/2023,04:49:22,0.017,0.0,0.005,0.0
30/05/2023,04:50:22,0.017,0.0,0.005,0.0
30/05/2023,04:51:22,0.018,0.0,0.006,0.001
30/05/2023,04:52:22,0.019,0.0,0.006,0.0
30/05/2023,04:53:22,0.020,0.0,0.006,0.0
30/05/2023,04:54:22,0.021,0.0,0.007,0.001
30/05/2023,04:55:23,0.021,0.0,0.007,0.0
30/05/2023,04:56:20,0.021,0.0,0.007,0.0
30/05/2023,04:57:22,0.022,0.0,0.008,0.001
30/05/2023,04:58:22,0.023,0.0,0.008,0.0
30/05/2023,04:59:23,0.024,0.0,0.008,0.0
30/05/2023,05:00:22,0.026,0.0,0.009,0.001
30/05/2023,05:01:22,0.026,0.0,0.009,0.0
30/05/2023,05:02:22,0.026,0.0,0.01,0.001
30/05/2023,05:03:23,0.027,0.0,0.01,0.0
30/05/2023,05:04:23,0.029,0.0,0.011,0.001
30/05/2023,05:05:22,0.029,0.0,0.011,0.0
30/05/2023,05:06:22,0.030,0.0,0.012,0.001
30/05/2023,05:07:22,0.032,0.0,0.012,0.0
30/05/2023,05:08:22,0.032,0.0,0.013,0.001
30/05/2023,05:09:22,0.033,0.0,0.013,0.0
30/05/2023,05:10:22,0.035,0.0,0.014,0.001
30/05/2023,05:11:22,0.036,0.0,0.014,0.0
30/05/2023,05:12:22,0.036,0.0,0.015,0.001
30/05/2023,05:13:23,0.037,0.0,0.015,0.0
30/05/2023,05:14:22,0.038,0.0,0.016,0.001
30/05/2023,05:15:22,0.039,0.0,0.017,0.001
30/05/2023,05:16:23,0.041,0.0,0.017,0.0
30/05/2023,05:17:23,0.041,0.0,0.018,0.001
30/05/2023,05:18:22,0.043,0.0,0.019,0.001
30/05/2023,05:19:23,0.043,0.0,0.02,0.001
30/05/2023,05:20:22,0.045,0.0,0.02,0.0
30/05/2023,05:21:23,0.045,0.0,0.021,0.001
30/05/2023,05:22:23,0.044,0.0,0.022,0.001
30/05/2023,05:23:23,0.044,0.0,0.022,0.0
30/05/2023,05:24:22,0.046,0.0,0.023,0.001
30/05/2023,05:25:22,0.047,0.0,0.024,0.001
30/05/2023,05:26:22,0.048,0.0,0.025,0.001
30/05/2023,05:27:22,0.049,0.0,0.026,0.001
30/05/2023,05:28:22,0.052,0.0,0.026,0.0
30/05/2023,05:29:22,0.052,0.0,0.027,0.001
30/05/2023,05:30:22,0.050,0.0,0.028,0.001
30/05/2023,05:31:23,0.052,0.0,0.029,0.001
30/05/2023,05:32:22,0.054,0.0,0.03,0.001
30/05/2023,05:33:22,0.054,0.0,0.031,0.001
30/05/2023,05:34:22,0.054,0.0,0.032,0.001
30/05/2023,05:35:22,0.056,0.0,0.033,0.001
30/05/2023,05:36:22,0.059,0.0,0.034,0.001
30/05/2023,05:37:22,0.061,0.0,0.035,0.001
30/05/2023,05:38:23,0.061,0.0,0.036,0.001
30/05/2023,05:39:22,0.062,0.0,0.037,0.001
30/05/2023,05:40:22,0.063,0.0,0.038,0.001
30/05/2023,05:41:22,0.064,0.0,0.039,0.001
30/05/2023,05:42:23,0.065,0.0,0.04,0.001
30/05/2023,05:43:23,0.066,0.0,0.041,0.001
30/05/2023,05:44:22,0.068,0.0,0.042,0.001
30/05/2023,05:45:22,0.068,0.0,0.043,0.001
30/05/2023,05:46:23,0.068,0.0,0.044,0.001
30/05/2023,05:47:21,0.067,0.0,0.045,0.001
30/05/2023,05:48:22,0.067,0.0,0.046,0.001
30/05/2023,05:49:23,0.070,0.0,0.048,0.002
30/05/2023,05:50:23,0.070,0.0,0.049,0.001
30/05/2023,05:51:23,0.076,0.0,0.05,0.001
30/05/2023,05:52:23,0.078,0.0,0.051,0.001
30/05/2023,05:53:22,0.075,0.0,0.053,0.002
30/05/2023,05:54:22,0.073,0.0,0.054,0.001
30/05/2023,05:55:22,0.075,0.0,0.055,0.001
30/05/2023,05:56:22,0.075,0.0,0.056,0.001
30/05/2023,05:57:22,0.077,0.0,0.057,0.001
30/05/2023,05:58:22,0.079,0.0,0.059,0.002
30/05/2023,05:59:22,0.078,0.0,0.06,0.001
30/05/2023,06:00:23,0.077,0.0,0.061,0.001
30/05/2023,06:01:22,0.079,0.0,0.063,0.002
30/05/2023,06:02:22,0.081,0.0,0.064,0.001
30/05/2023,06:03:22,0.084,0.0,0.065,0.001
30/05/2023,06:04:22,0.085,0.0,0.067,0.002
30/05/2023,06:05:23,0.082,0.0,0.068,0.001
30/05/2023,06:06:22,0.082,0.0,0.07,0.002
30/05/2023,06:07:23,0.082,0.0,0.071,0.001
30/05/2023,06:08:23,0.085,0.0,0.072,0.001
30/05/2023,06:09:22,0.087,0.0,0.074,0.002
30/05/2023,06:10:23,0.087,0.0,0.075,0.001
30/05/2023,06:11:22,0.089,0.0,0.077,0.002
30/05/2023,06:12:22,0.088,0.0,0.078,0.001
30/05/2023,06:13:22,0.090,0.0,0.08,0.002
30/05/2023,06:14:22,0.095,0.0,0.081,0.001
30/05/2023,06:15:22,0.094,0.0,0.083,0.002
30/05/2023,06:16:22,0.094,0.0,0.084,0.001
30/05/2023,06:17:23,0.096,0.0,0.086,0.002
30/05/2023,06:18:22,0.099,0.0,0.088,0.002
30/05/2023,06:19:22,0.096,0.0,0.089,0.001
30/05/2023,06:20:23,0.093,0.0,0.091,0.002
30/05/2023,06:21:22,0.094,0.0,0.092,0.001
30/05/2023,06:22:22,0.097,0.0,0.094,0.002
30/05/2023,06:23:23,0.100,0.0,0.096,0.002
30/05/2023,06:24:22,0.102,0.0,0.097,0.001
30/05/2023,06:25:22,0.104,0.0,0.099,0.002
30/05/2023,06:26:23,0.106,0.0,0.101,0.002
30/05/2023,06:27:23,0.105,0.0,0.102,0.001
30/05/2023,06:28:23,0.106,0.0,0.104,0.002
30/05/2023,06:29:22,0.110,0.0,0.106,0.002
30/05/2023,06:30:22,0.111,0.0,0.108,0.002
30/05/2023,06:31:23,0.112,0.0,0.11,0.002
30/05/2023,06:32:22,0.116,0.0,0.112,0.002
30/05/2023,06:33:22,0.122,0.0,0.114,0.002
30/05/2023,06:34:23,0.125,0.0,0.116,0.002
30/05/2023,06:35:23,0.126,0.0,0.118,0.002
30/05/2023,06:36:21,0.125,0.0,0.12,0.002
30/05/2023,06:37:22,0.130,0.0,0.122,0.002
30/05/2023,06:38:22,0.136,0.0,0.124,0.002
30/05/2023,06:39:22,0.138,0.0,0.126,0.002
30/05/2023,06:40:52,0.151,0.0,0.13,0.004
30/05/2023,06:42:23,0.158,0.0,0.134,0.004
30/05/2023,06:43:22,0.166,0.0,0.137,0.003
30/05/2023,06:44:23,0.170,0.0,0.139,0.002
30/05/2023,06:45:22,0.173,0.0,0.142,0.003
30/05/2023,06:46:23,0.180,0.0,0.145,0.003
30/05/2023,06:47:23,0.186,0.0,0.148,0.003
30/05/2023,06:48:23,0.194,0.0,0.151,0.003
30/05/2023,06:49:22,0.202,0.0,0.155,0.004
30/05/2023,06:50:23,0.207,0.0,0.158,0.003
30/05/2023,06:51:22,0.215,0.0,0.162,0.004
30/05/2023,06:52:22,0.214,0.0,0.165,0.003
30/05/2023,06:53:23,0.221,1.0,0.169,0.004
30/05/2023,06:54:26,0.230,1.0,0.173,0.004
30/05/2023,06:55:23,0.232,1.0,0.177,0.004
30/05/2023,06:56:23,0.235,1.0,0.18,0.003
30/05/2023,06:57:22,0.238,1.0,0.184,0.004
30/05/2023,06:58:22,0.240,1.0,0.188,0.004
30/05/2023,06:59:51,0.244,1.0,0.194,0.006
30/05/2023,07:01:23,0.253,1.0,0.201,0.007
30/05/2023,07:02:22,0.266,1.0,0.205,0.004
30/05/2023,07:03:23,0.268,1.0,0.209,0.004
30/05/2023,07:04:22,0.278,1.0,0.214,0.005
30/05/2023,07:05:23,0.285,1.0,0.219,0.005
30/05/2023,07:06:22,0.291,1.0,0.223,0.004
30/05/2023,07:07:23,0.295,1.0,0.228,0.005
30/05/2023,07:08:23,0.301,1.0,0.233,0.005
30/05/2023,07:09:22,0.313,1.0,0.238,0.005
30/05/2023,07:10:22,0.313,1.0,0.244,0.006
30/05/2023,07:11:22,0.314,1.0,0.249,0.005
30/05/2023,07:12:23,0.334,1.0,0.254,0.005
30/05/2023,07:13:22,0.338,1.0,0.26,0.006
30/05/2023,07:14:22,0.341,1.0,0.265,0.005
30/05/2023,07:15:23,0.353,1.0,0.271,0.006
30/05/2023,07:16:23,0.354,1.0,0.277,0.006
30/05/2023,07:17:22,0.370,1.0,0.283,0.006
30/05/2023,07:18:22,0.409,1.0,0.29,0.007
30/05/2023,07:19:22,0.378,1.0,0.297,0.007
30/05/2023,07:20:23,0.389,1.0,0.303,0.006
30/05/2023,07:21:23,0.396,1.0,0.31,0.007
30/05/2023,07:22:22,0.488,1.0,0.317,0.007
30/05/2023,07:23:22,0.389,1.0,0.324,0.007
30/05/2023,07:24:23,0.384,1.0,0.331,0.007
30/05/2023,07:25:22,0.407,1.0,0.337,0.006
30/05/2023,07:26:22,0.397,1.0,0.344,0.007
30/05/2023,07:27:22,0.402,1.0,0.351,0.007
30/05/2023,07:28:22,0.415,1.0,0.358,0.007
30/05/2023,07:29:22,0.403,1.0,0.365,0.007
30/05/2023,07:30:23,0.401,1.0,0.372,0.007
30/05/2023,07:31:23,0.403,1.0,0.379,0.007
30/05/2023,07:32:22,0.448,1.0,0.386,0.007
30/05/2023,07:33:23,0.432,1.0,0.394,0.008
30/05/2023,07:34:22,0.522,1.0,0.402,0.008
30/05/2023,07:35:23,0.484,1.0,0.41,0.008
30/05/2023,07:36:23,0.484,1.0,0.418,0.008
30/05/2023,07:37:22,0.480,1.0,0.427,0.009
30/05/2023,07:38:22,0.469,1.0,0.435,0.008
30/05/2023,07:39:23,0.496,1.0,0.443,0.008
30/05/2023,07:40:22,0.523,1.0,0.451,0.008
30/05/2023,07:41:23,0.554,1.0,0.46,0.009
30/05/2023,07:42:22,0.505,1.0,0.469,0.009
30/05/2023,07:43:22,0.517,1.0,0.477,0.008
30/05/2023,07:44:22,0.509,1.0,0.486,0.009
30/05/2023,07:45:22,0.490,1.0,0.494,0.008
30/05/2023,07:46:45,0.497,1.0,0.506,0.012
30/05/2023,07:48:23,0.485,1.0,0.519,0.013
30/05/2023,07:49:22,0.489,1.0,0.527,0.008
30/05/2023,07:50:23,0.570,1.0,0.536,0.009
30/05/2023,07:51:23,0.671,2.0,0.547,0.011
30/05/2023,07:52:23,0.613,1.0,0.556,0.009
30/05/2023,07:53:22,0.595,1.0,0.567,0.011
30/05/2023,07:54:23,0.640,1.0,0.577,0.01
30/05/2023,07:55:21,0.689,2.0,0.587,0.01
30/05/2023,07:56:45,0.555,1.0,0.601,0.014
30/05/2023,07:58:23,0.546,1.0,0.616,0.015
30/05/2023,07:59:22,0.566,1.0,0.625,0.009
30/05/2023,08:00:23,0.560,1.0,0.635,0.01
30/05/2023,08:01:22,0.575,1.0,0.645,0.01
30/05/2023,08:02:23,0.605,1.0,0.654,0.009
30/05/2023,08:03:22,0.654,2.0,0.665,0.011
30/05/2023,08:04:23,0.583,1.0,0.675,0.01
30/05/2023,08:05:22,0.561,1.0,0.685,0.01
30/05/2023,08:06:23,0.566,1.0,0.694,0.009
30/05/2023,08:07:23,0.575,1.0,0.704,0.01
30/05/2023,08:08:22,0.575,1.0,0.713,0.009
30/05/2023,08:09:22,0.561,1.0,0.723,0.01
30/05/2023,08:10:22,0.544,1.0,0.732,0.009
30/05/2023,08:11:22,0.552,1.0,0.741,0.009
30/05/2023,08:12:22,0.551,1.0,0.75,0.009
30/05/2023,08:13:23,0.548,1.0,0.76,0.01
30/05/2023,08:14:23,0.552,1.0,0.769,0.009
30/05/2023,08:15:23,0.559,1.0,0.778,0.009
30/05/2023,08:16:22,0.729,2.0,0.788,0.01
30/05/2023,08:17:23,0.873,2.0,0.801,0.013
30/05/2023,08:18:23,0.802,2.0,0.816,0.015
30/05/2023,08:19:23,0.916,2.0,0.829,0.013
30/05/2023,08:20:23,0.930,2.0,0.844,0.015
30/05/2023,08:21:22,0.922,2.0,0.86,0.016
30/05/2023,08:22:23,0.773,2.0,0.874,0.014
30/05/2023,08:23:23,0.925,2.0,0.889,0.015
30/05/2023,08:24:22,0.725,2.0,0.903,0.014
30/05/2023,08:25:22,0.694,2.0,0.916,0.013
30/05/2023,08:26:22,0.909,2.0,0.929,0.013
30/05/2023,08:27:22,0.957,2.0,0.944,0.015
30/05/2023,08:28:22,0.987,2.0,0.96,0.016
30/05/2023,08:29:22,0.998,2.0,0.977,0.017
30/05/2023,08:30:23,0.802,2.0,0.993,0.016
30/05/2023,08:31:23,0.736,2.0,1.006,0.013
30/05/2023,08:32:22,0.785,2.0,1.018,0.012
30/05/2023,08:33:22,0.885,2.0,1.031,0.013
30/05/2023,08:34:22,0.891,2.0,1.045,0.014
30/05/2023,08:35:23,0.856,2.0,1.06,0.015
30/05/2023,08:36:23,0.707,2.0,1.073,0.013
30/05/2023,08:37:22,0.684,2.0,1.084,0.011
30/05/2023,08:38:22,0.694,2.0,1.096,0.012
30/05/2023,08:39:23,0.692,2.0,1.108,0.012
30/05/2023,08:40:23,0.696,2.0,1.12,0.012
30/05/2023,08:41:23,0.686,2.0,1.131,0.011
30/05/2023,08:42:23,0.698,2.0,1.143,0.012
30/05/2023,08:43:23,0.717,2.0,1.154,0.011
30/05/2023,08:44:22,0.717,2.0,1.166,0.012
30/05/2023,08:45:23,0.704,2.0,1.178,0.012
30/05/2023,08:46:23,0.726,2.0,1.19,0.012
30/05/2023,08:47:22,0.775,2.0,1.202,0.012
30/05/2023,08:48:22,0.800,2.0,1.215,0.013
30/05/2023,08:49:22,0.789,2.0,1.229,0.014
30/05/2023,08:50:22,0.949,2.0,1.243,0.014
30/05/2023,08:51:22,0.807,2.0,1.257,0.014
30/05/2023,08:52:22,0.793,2.0,1.271,0.014
30/05/2023,08:53:22,0.897,2.0,1.286,0.015
30/05/2023,08:54:23,0.859,2.0,1.3,0.014
30/05/2023,08:55:23,0.859,2.0,1.316,0.016
30/05/2023,08:56:22,1.017,2.0,1.331,0.015
30/05/2023,08:57:23,1.075,2.0,1.349,0.018
30/05/2023,08:58:23,0.948,2.0,1.368,0.019
30/05/2023,08:59:22,0.857,2.0,1.384,0.016
30/05/2023,09:00:23,0.900,2.0,1.401,0.017
30/05/2023,09:01:23,0.980,2.0,1.416,0.015
30/05/2023,09:02:23,0.906,2.0,1.434,0.018
30/05/2023,09:03:23,0.903,2.0,1.45,0.016
30/05/2023,09:04:22,1.020,2.0,1.466,0.016
30/05/2023,09:05:23,0.884,2.0,1.483,0.017
30/05/2023,09:06:22,1.140,3.0,1.499,0.016
30/05/2023,09:07:23,0.935,2.0,1.517,0.018
30/05/2023,09:08:22,1.167,3.0,1.534,0.017
30/05/2023,09:09:23,1.130,3.0,1.551,0.017
30/05/2023,09:10:22,1.310,3.0,1.569,0.018
30/05/2023,09:11:23,0.934,2.0,1.586,0.017
30/05/2023,09:12:23,1.035,2.0,1.602,0.016
30/05/2023,09:13:22,0.971,2.0,1.62,0.018
30/05/2023,09:14:23,1.306,3.0,1.638,0.018
30/05/2023,09:15:22,1.399,3.0,1.66,0.022
30/05/2023,09:16:23,1.129,3.0,1.678,0.018
30/05/2023,09:17:23,1.418,3.0,1.699,0.021
30/05/2023,09:18:21,1.432,3.0,1.718,0.019
30/05/2023,09:19:23,1.184,3.0,1.74,0.022
30/05/2023,09:20:23,1.422,3.0,1.762,0.022
30/05/2023,09:21:23,1.107,3.0,1.781,0.019
30/05/2023,09:22:23,1.422,3.0,1.803,0.022
30/05/2023,09:23:22,1.407,3.0,1.827,0.024
30/05/2023,09:24:22,1.460,3.0,1.851,0.024
30/05/2023,09:25:22,1.458,3.0,1.875,0.024
30/05/2023,09:26:23,1.449,3.0,1.9,0.025
30/05/2023,09:27:22,1.196,3.0,1.921,0.021
30/05/2023,09:28:23,1.476,3.0,1.945,0.024
30/05/2023,09:29:22,1.474,3.0,1.968,0.023
30/05/2023,09:30:23,1.478,3.0,1.992,0.024
30/05/2023,09:31:22,1.431,3.0,2.016,0.024
30/05/2023,09:32:23,1.480,3.0,2.041,0.025
30/05/2023,09:33:23,1.500,3.0,2.066,0.025
30/05/2023,09:34:23,1.500,3.0,2.091,0.025
30/05/2023,09:35:22,1.510,3.0,2.115,0.024
30/05/2023,09:36:23,1.519,3.0,2.14,0.025
30/05/2023,09:37:23,1.530,4.0,2.165,0.025
30/05/2023,09:38:23,1.529,4.0,2.191,0.026
30/05/2023,09:39:23,1.543,4.0,2.217,0.026
30/05/2023,09:40:23,1.553,4.0,2.242,0.025
30/05/2023,09:41:22,1.555,4.0,2.268,0.026
30/05/2023,09:42:23,1.569,4.0,2.294,0.026
30/05/2023,09:43:22,1.571,4.0,2.32,0.026
30/05/2023,09:44:23,1.573,4.0,2.347,0.027
30/05/2023,09:45:23,1.590,4.0,2.373,0.026
30/05/2023,09:46:22,1.597,4.0,2.4,0.027
30/05/2023,09:47:23,1.605,4.0,2.426,0.026
30/05/2023,09:48:23,1.610,4.0,2.453,0.027
30/05/2023,09:49:23,1.618,4.0,2.48,0.027
30/05/2023,09:50:23,1.627,4.0,2.507,0.027
30/05/2023,09:51:22,1.638,4.0,2.534,0.027
30/05/2023,09:52:23,1.637,4.0,2.561,0.027
30/05/2023,09:53:23,1.649,4.0,2.589,0.028
30/05/2023,09:54:22,1.655,4.0,2.616,0.027
30/05/2023,09:55:23,1.657,4.0,2.644,0.028
30/05/2023,09:56:23,1.665,4.0,2.673,0.029
30/05/2023,09:57:22,1.667,4.0,2.699,0.026
30/05/2023,09:58:23,1.673,4.0,2.728,0.029
30/05/2023,09:59:23,1.670,4.0,2.755,0.027
30/05/2023,10:00:22,1.688,4.0,2.783,0.028
30/05/2023,10:01:22,1.706,4.0,2.811,0.028
30/05/2023,10:02:23,1.722,4.0,2.84,0.029